DM4JH-5 Weather Reports


time (UTC)temp
C
wind
direction
speed
KPH
gust
KPH
rain 1hr
cm
rain 24hr
cm
rain mn
cm
humidity
%
barometer
mb
20260507114031 8 33 1.6 4.8 0.05 0.25 0.23 87 1014.9
20260507113030 8 33 1.6 6.4 0.05 0.25 0.23 87 1014.8
20260507112027 8 29 3.2 6.4 0.05 0.30 0.23 88 1014.8
20260507111026 8 41 1.6 6.4 0.08 0.30 0.23 87 1014.7
20260507110024 8 31 1.6 6.4 0.05 0.28 0.20 87 1014.6
20260507105052 8 29 1.6 4.8 0.08 0.28 0.20 88 1014.6
20260507104021 8 19 1.6 4.8 0.05 0.25 0.18 88 1014.5
20260507103019 8 49 1.6 4.8 0.05 0.25 0.18 88 1014.4
20260507102017 8 47 1.6 6.4 0.05 0.25 0.18 88 1014.3
20260507101046 8 53 1.6 6.4 0.05 0.23 0.15 88 1014.3
20260507100044 8 43 1.6 6.4 0.05 0.23 0.15 87 1014.2
20260507095043 8 17 1.6 6.4 0.05 0.20 0.13 87 1014.0
20260507094041 8 40 3.2 8.0 0.05 0.20 0.13 87 1014.0
20260507093040 8 47 1.6 6.4 0.08 0.20 0.13 87 1013.9
20260507092038 8 29 1.6 6.4 0.08 0.20 0.13 87 1013.7
20260507091036 8 36 1.6 8.0 0.05 0.18 0.10 87 1013.6
20260507090034 8 37 1.6 4.8 0.08 0.18 0.10 87 1013.5
20260507085033 7 32 0.0 4.8 0.05 0.15 0.08 87 1013.4
20260507084031 7 65 0.0 6.4 0.05 0.15 0.08 87 1013.2
20260507083030 7 24 1.6 4.8 0.03 0.13 0.05 87 1013.2
20260507082028 7 9 1.6 4.8 0.03 0.13 0.05 86 1013.0
20260507081026 7 24 0.0 4.8 0.03 0.13 0.05 86 1012.9
20260507080025 7 40 1.6 6.4 0.00 0.10 0.03 86 1012.8
20260507075023 7 41 1.6 6.4 0.00 0.10 0.03 85 1012.7
20260507074021 7 26 3.2 8.0 0.00 0.10 0.03 85 1012.6
20260507073049 7 35 1.6 8.0 0.00 0.10 0.03 85 1012.5
20260507072048 7 35 1.6 6.4 0.00 0.10 0.03 85 1012.4
20260507071046 7 40 3.2 8.0 0.00 0.10 0.03 85 1012.3
20260507070044 7 26 1.6 4.8 0.00 0.10 0.03 85 1012.2
20260507065042 7 39 3.2 8.0 0.00 0.10 0.03 85 1012.1
20260507064040 7 30 1.6 6.4 0.00 0.10 0.03 85 1011.9
20260507063039 7 38 1.6 6.4 0.00 0.10 0.03 85 1011.8
20260507062037 7 40 1.6 6.4 0.00 0.13 0.03 85 1011.6
20260507061035 7 0 1.6 1.6 0.00 0.15 0.03 85 1011.6
20260507060935 7 68 3.2 4.8 0.00 0.18 0.03 85 1011.4